Change the Weather History Date:

Sunday, October 23, 2011

  Actual Average Record
Temperature  
Mean Temperature 60 °F 54 °F  
Max Temperature 80 °F 66 °F 92 °F (1939)
Min Temperature 39 °F 43 °F 25 °F (1966)
Degree Days  
Heating Degree Days 5 11  
Month to date heating degree days 143 188  
Since 1 July heating degree days 224 255  
Cooling Degree Days 0 0  
Month to date cooling degree days 46 25  
Year to date cooling degree days 1920 1418  
Growing Degree Days 10 (Base 50)    
Moisture  
Dew Point 43 °F    
Average Humidity 58    
Maximum Humidity 93    
Minimum Humidity 23    
Precipitation  
Precipitation 0.00 in 0.09 in 1.98 in (1957)
Month to date precipitation 0.34 2.35  
Year to date precipitation 24.73 32.58  
Snow  
Snow 0.00 in 0.00 in 2.40 in (1908)
Month to date snowfall 0.0 0.2  
Year to date snowfall 38.5 11.5  
Since 1 July snowfall 0.0 0.2  
Snow Depth 0.00 in    
Sea Level Pressure  
Sea Level Pressure 29.99 in    
Wind  
Wind Speed 2 mph (WSW)    
Max Wind Speed 13 mph    
Max Gust Speed 18 mph    
Visibility 8 miles    
Events Fog    
T = Trace of Precipitation, MM = Missing Value Source: NWS Daily Summary

Daily Weather History Graph

Daily Weather History Graph

Search for Another Location

Airport or City:

Trip Planner

Search our weather history database for the weather conditions in past years. The results will help you decide how hot, cold, wet, or windy it might be!

Date:

Astronomy

Oct. 23, 2011 Rise Set
Actual Time 7:40 AM CDT 6:33 PM CDT
Civil Twilight 7:12 AM CDT 7:00 PM CDT
Nautical Twilight 6:41 AM CDT 7:31 PM CDT
Astronomical Twilight 6:10 AM CDT 8:02 PM CDT
Moon 3:49 AM CDT (10/23) 4:23 PM CDT (10/23)
Length of Visible Light 11h 47m
Length of Day
10h 52m
Waning Crescent, 14% of the Moon is Illuminated
Oct 23
Waning Crescent
Oct 26
New
Nov 2
First Quarter
Nov 10
Full
Nov 18
Last Quarter

Hourly Weather History & Observations

Time (CDT) Temp. Dew Point Humidity Pressure Visibility Wind Dir Wind Speed Gust Speed Precip Events Conditions
12:53 AM 51.1 °F 44.1 °F 77% 30.01 in 10.0 mi Calm Calm - N/A   Overcast
1:53 AM 50.0 °F 43.0 °F 77% 30.01 in 10.0 mi Calm Calm - N/A   Overcast
2:53 AM 50.0 °F 42.1 °F 74% 30.00 in 10.0 mi Calm Calm - N/A   Partly Cloudy
3:53 AM 46.9 °F 42.1 °F 83% 29.99 in 10.0 mi Calm Calm - N/A   Clear
4:53 AM 45.0 °F 42.1 °F 90% 29.99 in 10.0 mi Calm Calm - N/A   Clear
5:53 AM 44.1 °F 43.0 °F 96% 30.00 in 9.0 mi Calm Calm - N/A   Clear
6:53 AM 41.0 °F 39.0 °F 93% 30.00 in 9.0 mi Calm Calm - N/A   Clear
7:09 AM 42.8 °F 41.0 °F 93% 30.00 in 1.8 mi Calm Calm - N/A   Clear
7:24 AM 39.2 °F 39.2 °F 100% 30.00 in 0.5 mi Calm Calm - N/A Fog Fog
7:34 AM 41.0 °F 41.0 °F 100% 30.01 in 1.0 mi Calm Calm - N/A   Clear
7:50 AM 39.2 °F 39.2 °F 100% 30.01 in 3.0 mi Calm Calm - N/A   Clear
7:53 AM 41.0 °F 39.9 °F 96% 30.01 in 4.0 mi Calm Calm - N/A   Clear
8:53 AM 48.0 °F 44.1 °F 86% 30.02 in 9.0 mi Calm Calm - N/A   Clear
9:53 AM 55.0 °F 43.0 °F 64% 30.02 in 10.0 mi Calm Calm - N/A   Clear
10:53 AM 63.0 °F 44.1 °F 50% 30.02 in 10.0 mi Calm Calm - N/A   Clear
11:53 AM 66.9 °F 46.0 °F 47% 30.01 in 10.0 mi Calm Calm - N/A   Clear
12:53 PM 71.1 °F 48.0 °F 44% 29.99 in 10.0 mi West 3.5 mph - N/A   Clear
1:53 PM 75.9 °F 46.0 °F 35% 29.96 in 10.0 mi WSW 8.1 mph - N/A   Clear
2:53 PM 78.1 °F 44.1 °F 30% 29.93 in 10.0 mi WSW 8.1 mph - N/A   Clear
3:53 PM 80.1 °F 41.0 °F 25% 29.92 in 10.0 mi West 11.5 mph 18.4 mph N/A   Clear
4:53 PM 80.1 °F 39.9 °F 24% 29.91 in 10.0 mi West 8.1 mph - N/A   Clear
5:53 PM 78.1 °F 39.0 °F 25% 29.91 in 10.0 mi WSW 4.6 mph - N/A   Clear
6:53 PM 69.1 °F 42.1 °F 38% 29.93 in 10.0 mi Calm Calm - N/A   Clear
7:53 PM 62.1 °F 44.1 °F 52% 29.94 in 10.0 mi Calm Calm - N/A   Clear
8:53 PM 55.0 °F 44.1 °F 67% 29.96 in 10.0 mi Calm Calm - N/A   Clear
9:53 PM 53.1 °F 44.1 °F 71% 29.99 in 10.0 mi Calm Calm - N/A   Clear
10:53 PM 51.1 °F 43.0 °F 74% 30.02 in 10.0 mi Calm Calm - N/A   Clear
11:53 PM 50.0 °F 42.8 °F 76% 30.04 in 10.0 mi Calm Calm - N/A   Clear